TIME,DELAY(SENSOR),PRES,OXYGEN,RAWTEMP,T(OPTODE),TCPHASE,FLUOR,BETA(BETA700),BETA(BETA412),BETA(BETA440),CDOM,C(CSC),ED(ED412.40),ED(ED444.00),ED(ED489.70),ED(ED554.30),LU(LU411.80),LU(LU443.40),LU(LU489.60),LU(LU554.10),COMP,TILTX,TILTY,CHECK
1346557530,5811,866.6799926757812000,48.3559989929199200,665.6171875000000000,4.4428668022155760,53.8481788635253900,52,100,89,79,80,15299,2147759168,2147422838,2148007899,2147874340,2147642029,2147064877,2148256100,2147200640,2389,5,13,30202
1346561126,5807,956.3099975585938000,51.2537498474121100,672.0661010742188000,4.2299227714538570,53.5262489318847660,52,99,90,79,80,15294,2147757577,2147420781,2148008164,2147877494,2147644233,2147062034,2148254537,2147198500,175,5,13,47595
1346564726,5807,971.2299804687500000,50.2572097778320300,670.8018798828125000,4.2717041969299320,53.6474990844726560,54,98,86,80,82,15291,2147757778,2147417408,2148005531,2147874011,2147639780,2147061302,2148256886,2147199414,116,5,13,5122
1346568326,5809,957.9199829101562000,50.8129310607910160,672.4957885742188000,4.2157168388366700,53.5893592834472660,52,100,87,78,82,15291,2147759917,2147419638,2148009792,2147875748,2147640530,2147057929,2148256155,2147195099,21,5,13,35706
1346571926,5807,971.3099975585938000,50.8526306152343750,672.9476928710938000,4.2007751464843750,53.5892486572265600,52,98,86,77,81,15290,2147760704,2147416091,2148010971,2147876288,2147643373,2147058258,2148264996,2147197174,173,5,13,12659
1346575526,5808,970.2700195312500000,50.9336204528808600,673.5181274414062000,4.1819109916687010,53.5856513977050800,53,98,88,80,82,15291,2147761380,2147421293,2148008512,2147872749,2147639972,2147063625,2148260937,2147198134,3471,5,13,29607
1346579126,5810,965.5999755859375000,50.9531784057617200,674.2852783203125000,4.1565318107604980,53.5933113098144500,52,100,87,78,81,15291,2147760585,2147419328,2148009005,2147876891,2147642605,2147064466,2148254363,2147195474,339,5,13,17299
1346582726,5813,963.9699707031250000,51.4723014831543000,675.7172851562500000,4.1091480255126950,53.5386390686035160,53,98,88,81,82,15176,2147759250,2147417526,2148009965,2147875401,2147642322,2147061622,2148261888,2147195126,43,5,13,24103
1346586326,5811,972.0200195312500000,51.9182891845703100,676.4232788085938000,4.0857748985290530,53.4882202148437500,52,101,87,79,81,15282,2147761828,2147420059,2148008301,2147875072,2147639954,2147065526,2148258002,2147200182,3124,4,13,28864
1346589926,5809,973.5999755859375000,51.4775085449218750,675.9666748046875000,4.1008930206298830,53.5412216186523440,53,100,87,80,82,15284,2147760045,2147417170,2148009371,2147872658,2147642066,2147068077,2148261778,2147199616,475,5,13,37055
1346593526,5809,972.3400268554688000,51.7718811035156250,676.6953735351562000,4.0767669677734375,53.5126495361328100,52,98,86,80,82,15282,2147763638,2147417088,2148011401,2147875172,2147639424,2147060745,2148258843,2147198473,72,5,13,14230
1346597126,5809,972.4699707031250000,51.5590782165527340,676.2672729492188000,4.0909399986267090,53.5331192016601560,52,97,88,80,81,15281,2147759780,2147418020,2148011081,2147874816,2147641627,2147065883,2148265380,2147195913,123,5,13,44396
1346600726,5809,974.6799926757812000,52.1725502014160160,677.3679199218750000,4.0545010566711430,53.4651603698730500,52,97,86,79,83,15281,2147756306,2147419620,2148008603,2147871817,2147641152,2147059245,2148261915,2147197741,3193,5,13,46542
1346604326,5812,974.4500122070312000,52.2452201843261700,677.5864257812500000,4.0472640991210940,53.4619903564453100,53,98,82,79,81,15285,2147762331,2147419291,2148011163,2147873097,2147642907,2147066276,2148258560,2147195401,3190,4,13,31652
1346607926,5808,972.3200073242188000,52.0525894165039060,678.2877197265625000,4.0240311622619630,53.4936408996582000,51,97,87,80,81,15274,2147765440,2147419035,2148012050,2147874221,2147639835,2147060324,2148255460,2147199350,3381,5,13,33875
1346611526,5808,980.2399902343750000,51.8722686767578100,676.6273193359375000,4.0790209770202640,53.4979286193847660,53,97,87,79,82,15281,2147764827,2147419008,2148010304,2147873481,2147641115,2147059565,2148258852,2147198957,209,5,13,47800
1346615126,5807,964.1199951171875000,51.8802490234375000,678.0040893554688000,4.0334281921386720,53.5178985595703100,53,103,85,80,82,15282,2147760429,2147418240,2148008877,2147875035,2147640786,2147065645,2148262070,2147200000,3117,4,13,31326
1346618726,5808,977.2999877929688000,51.8935890197753900,676.6887817382812000,4.0769858360290530,53.4935417175293000,53,98,89,79,82,15278,2147764278,2147421092,2148011117,2147874413,2147641590,2147069924,2148263296,2147198153,278,5,13,16526
1346622326,5812,983.6500244140625000,51.2697792053222660,675.3129272460938000,4.1225337982177730,53.5610809326171900,53,97,86,80,81,15277,2147761764,2147420672,2148006848,2147872713,2147642614,2147060452,2148259940,2147195172,51,5,13,50876
1346625926,5809,986.4699707031250000,50.3189582824707000,673.6160278320312000,4.1786751747131350,53.6702194213867200,53,100,87,79,82,15267,2147761554,2147419648,2148007158,2147873462,2147638957,2147063497,2148260041,2147201472,776,5,13,10293
1346629526,5810,982.9899902343750000,50.2570304870605500,674.0192871093750000,4.1653327941894530,53.6884689331054700,53,99,91,79,81,15264,2147761234,2147418953,2148010523,2147873846,2147642733,2147060928,2148259062,2147202404,576,5,13,18209
1346633126,5810,985.0100097656250000,50.6496200561523440,674.5620727539062000,4.1473770141601560,53.6381492614746100,52,100,88,80,81,15263,2147758820,2147415881,2148009993,2147874029,2147643867,2147065408,2148258788,2147198848,159,5,13,41740
1346636726,5810,982.0000000000000000,50.7723693847656250,676.0494995117188000,4.0981521606445310,53.6392097473144500,52,99,89,79,80,15261,2147758217,2147420909,2148007414,2147872365,2147644397,2147058889,2148262445,2147201892,2714,4,13,30842
1346640326,5808,976.9899902343750000,50.9627609252929700,676.6848144531250000,4.0771179199218750,53.6211509704589840,52,98,88,79,81,15263,2147757668,2147421028,2148009033,2147876653,2147643017,2147059163,2148265517,2147196681,3595,5,13,7276
1346643926,5808,976.3900146484375000,51.3541297912597660,678.1115722656250000,4.0298671722412110,53.5891685485839840,52,98,88,78,82,15265,2147758409,2147420516,2148009307,2147875108,2147645184,2147062619,2148263323,2147196278,34,5,13,14302
1346647526,5810,983.8200073242188000,51.8118400573730500,676.9860839843750000,4.0671420097351070,53.5142517089843750,52,99,87,79,81,15264,2147759433,2147420717,2148009206,2147873929,2147646582,2147064923,2148261732,2147197184,330,4,13,26656
1346651126,5809,983.9299926757812000,51.7639389038085940,676.8464965820312000,4.0717658996582030,53.5147781372070300,52,98,88,79,81,15261,2147761170,2147420681,2148012141,2147870784,2147644022,2147063131,2148262720,2147199625,3438,5,13,17191
1346654726,5806,980.5800170898438000,50.8585815429687500,676.6923217773438000,4.0768699645996090,53.6331787109375000,52,98,89,78,82,15261,2147761645,2147421257,2148009371,2147876827,2147643666,2147060973,2148256219,2147201088,334,5,13,56174
1346658326,5811,984.5399780273438000,50.7182006835937500,676.5676269531250000,4.0810008049011230,53.6515998840332000,53,96,87,79,82,15261,2147760082,2147420406,2148007707,2147873892,2147642688,2147063990,2148259968,2147197558,163,5,13,12157
1346661926,5810,990.8400268554688000,51.4464988708496100,676.0537719726562000,4.0980091094970700,53.5467491149902340,52,98,88,78,82,15262,2147760722,2147419218,2148008246,2147875337,2147644370,2147062720,2148257225,2147196918,3133,5,13,5910
1346665526,5809,982.5800170898438000,51.4851989746093750,676.1301879882812000,4.0954780578613280,53.5446510314941400,52,99,90,80,81,15261,2147760859,2147418788,2148009270,2147873124,2147641426,2147062665,2148264640,2147201325,16,5,13,61068
1346669126,5808,988.7700195312500000,51.4062500000000000,675.7797241210938000,4.1070799827575680,53.5513305664062500,53,99,88,78,81,15260,2147759122,2147419145,2148008292,2147875593,2147645824,2147065435,2148258825,2147196461,218,5,13,47388
1346672726,5812,986.6099853515625000,50.7689018249511700,676.0112304687500000,4.0994191169738770,53.6430397033691400,53,98,86,78,82,15261,2147760018,2147423049,2148009956,2147874102,2147643136,2147064164,2148262893,2147201069,253,5,13,29091
1346676326,5810,983.6699829101562000,51.2764205932617200,676.3292236328125000,4.0888919830322270,53.5717315673828100,53,100,85,78,83,15258,2147756946,2147422573,2148011666,2147872676,2147640896,2147062884,2148262418,2147198701,126,5,13,45143
1346679926,5809,983.5599975585938000,50.5675086975097660,676.0863037109375000,4.0969328880310060,53.6724700927734400,52,99,85,79,80,15257,2147763986,2147421101,2148012361,2147872877,2147640950,2147062427,2148259254,2147195629,146,5,13,38067
1346683526,5808,979.1599731445312000,50.9446716308593750,677.3242797851562000,4.0559439659118650,53.6340599060058600,52,110,85,79,82,15253,2147758509,2147417453,2148008128,2147872457,2147644178,2147060004,2148261412,2147197961,135,5,13,9218
1346687126,5810,981.8499755859375000,51.5016517639160160,678.5982055664062000,4.0137438774108890,53.5727310180664060,52,98,91,78,82,15255,2147763940,2147420553,2148010304,2147873051,2147646381,2147063296,2148263186,2147192704,391,4,13,25956
1346690726,5809,982.0399780273438000,51.0309104919433600,678.4796142578125000,4.0176749229431150,53.6353912353515600,52,98,89,80,83,15252,2147761856,2147420909,2148011062,2147876562,2147644004,2147056109,2148262857,2147196982,2661,5,13,54202
1346694326,5809,990.3099975585938000,51.8777999877929700,677.0607299804688000,4.0646719932556150,53.5065612792968750,53,101,86,80,81,15249,2147760100,2147418624,2148008649,2147874523,2147647350,2147061769,2148259364,2147197897,3419,4,13,56993
1346697926,5808,989.0100097656250000,51.3452415466308600,676.6746826171875000,4.0774540901184080,53.5703887939453100,53,97,89,79,82,15249,2147757833,2147419830,2148008704,2147870317,2147643958,2147060187,2148262738,2147198025,392,5,13,45801
1346701526,5809,985.0800170898438000,50.7759895324707000,676.6173706054688000,4.0793499946594240,53.6456108093261700,52,97,87,79,83,15248,2147759881,2147417289,2148009170,2147874989,2147645120,2147059849,2148265179,2147198281,3164,5,13,53423
1346701855,5809,987.1699829101562000,50.7230415344238300,676.5648193359375000,4.0810909271240230,53.6544609069824200,53,98,87,79,83,15291,2147758308,2147420845,2148009353,2147872192,2147644251,2147063515,2148259702,2147196096,3390,5,13,1115
